N1YZ Weather Reports


time (UTC)temp
F
wind
direction
speed
knots
gust
knots
rain 1hr
in
rain 24hr
in
rain mn
in
humidity
%
barometer
mb
20260906021014 81 359 0.0 0.0 0.00 0.00 0.00 86 1032.4
20260906020514 82 359 0.0 0.0 0.00 0.00 0.00 86 1032.4
20260906020014 82 359 0.0 0.0 0.00 0.00 0.00 86 1032.4
20260906015513 82 359 0.0 0.0 0.00 0.00 0.00 86 1032.3
20260906015013 82 1 0.0 0.0 0.00 0.00 0.00 86 1031.9
20260906014508 82 0 0.0 0.0 0.00 0.00 0.00 86 1031.7
20260906014003 82 1 0.0 0.0 0.00 0.00 0.00 85 1031.6
20260906013458 82 1 0.0 0.0 0.00 0.00 0.00 84 1031.6
20260906012954 82 1 0.0 0.0 0.00 0.00 0.00 84 1031.7
20260906012449 83 1 0.0 0.0 0.00 0.00 0.00 84 1031.4
20260906011948 83 3 0.0 0.0 0.00 0.00 0.00 84 1031.6
20260906011444 83 3 0.9 0.9 0.00 0.00 0.00 84 1031.2
20260906010939 83 358 0.0 0.0 0.00 0.00 0.00 84 1030.7
20260906010434 83 2 0.0 0.0 0.00 0.00 0.00 84 1031.0
20260906005930 83 2 0.0 0.0 0.00 0.00 0.00 84 1030.7
20260906005430 83 3 0.0 0.0 0.00 0.00 0.00 83 1031.0
20260906004928 83 10 0.0 0.0 0.00 0.00 0.00 83 1030.9
20260906004423 84 7 0.0 0.0 0.00 0.00 0.00 82 1031.0
20260906003919 84 0 0.0 0.0 0.00 0.00 0.00 82 1031.0
20260906003414 84 8 0.0 0.0 0.00 0.00 0.00 81 1031.2
20260906002909 84 5 0.0 0.0 0.00 0.00 0.00 81 1030.9
20260906002409 85 7 0.0 0.0 0.00 0.00 0.00 80 1031.0
20260906001904 85 7 0.0 0.0 0.00 0.00 0.00 80 1031.1
20260906001400 85 340 0.0 0.0 0.00 0.00 0.00 79 1031.1
20260906000356 85 338 0.0 0.0 0.00 0.00 0.00 79 1031.0
20260905235849 85 12 0.0 0.0 0.00 0.00 0.00 79 1031.2
20260905235343 86 6 0.0 0.0 0.00 0.00 0.00 79 1031.0
20260905234838 86 10 0.9 1.7 0.00 0.00 0.00 78 1031.2
20260905234334 86 347 0.9 0.9 0.00 0.00 0.00 78 1031.0
20260905233829 86 15 0.0 0.9 0.00 0.00 0.00 79 1031.0
20260905233324 87 349 0.0 0.9 0.00 0.00 0.00 78 1031.1
20260905232823 87 356 1.7 2.6 0.00 0.00 0.00 77 1031.1
20260905232319 87 9 0.0 0.0 0.00 0.00 0.00 78 1031.1
20260905231815 87 13 0.0 0.0 0.00 0.00 0.00 77 1030.9
20260905231310 87 19 0.0 0.0 0.00 0.00 0.00 77 1030.9
20260905230806 87 14 0.0 0.0 0.00 0.00 0.00 77 1030.9
20260905230304 88 20 0.0 0.0 0.00 0.00 0.00 77 1031.0
20260905225803 88 337 0.0 0.0 0.00 0.00 0.00 76 1030.9
20260905225259 89 1 0.9 0.9 0.00 0.00 0.00 75 1031.0
20260905224758 89 21 0.0 0.9 0.00 0.00 0.00 74 1031.1
20260905224254 89 35 0.9 1.7 0.00 0.00 0.00 73 1030.9
20260905223749 90 56 0.9 1.7 0.00 0.00 0.00 72 1030.9
20260905223246 90 2 0.0 0.0 0.00 0.00 0.00 71 1030.5
20260905222741 90 31 0.0 0.0 0.00 0.00 0.00 71 1030.8
20260905222240 90 357 0.9 1.7 0.00 0.00 0.00 71 1030.8
20260905221736 90 7 0.0 0.9 0.00 0.00 0.00 71 1030.6
20260905221233 91 25 0.0 0.0 0.00 0.00 0.00 70 1030.8
20260905220729 91 11 0.0 0.0 0.00 0.00 0.00 71 1030.6
20260905220225 91 7 0.0 0.9 0.00 0.00 0.00 70 1030.5
20260905215724 91 3 0.0 0.0 0.00 0.00 0.00 69 1030.5
20260905215220 91 355 0.9 0.9 0.00 0.00 0.00 68 1030.3
20260905214715 92 21 0.0 0.0 0.00 0.00 0.00 67 1030.3
20260905214211 92 12 0.0 0.0 0.00 0.00 0.00 65 1030.3
20260905213706 93 359 0.0 0.0 0.00 0.00 0.00 63 1030.5
20260905213202 93 8 0.0 0.0 0.00 0.00 0.00 61 1030.3
20260905212657 93 2 0.0 0.0 0.00 0.00 0.00 60 1030.5
20260905212156 93 25 0.0 0.0 0.00 0.00 0.00 61 1030.4
20260905211650 94 26 0.0 0.0 0.00 0.00 0.00 59 1030.6
20260905211146 94 3 0.0 0.0 0.00 0.00 0.00 57 1030.5
20260905210642 94 12 0.0 0.0 0.00 0.00 0.00 61 1030.7
20260905210137 95 356 0.9 0.9 0.00 0.00 0.00 59 1030.6
20260905205636 95 2 0.0 0.0 0.00 0.00 0.00 59 1030.8
20260905205131 95 337 2.6 2.6 0.00 0.00 0.00 60 1030.8
20260905204629 95 9 0.0 0.0 0.00 0.00 0.00 59 1030.6
20260905204125 94 83 0.9 0.9 0.00 0.00 0.00 59 1030.5
20260905203625 94 22 0.0 0.0 0.00 0.00 0.00 61 1030.7
20260905203121 94 3 0.9 0.9 0.00 0.00 0.00 62 1030.8
20260905202616 93 7 0.0 0.0 0.00 0.00 0.00 62 1030.7
20260905202111 94 3 0.0 0.0 0.00 0.00 0.00 62 1031.1
20260905201607 94 349 0.0 0.0 0.00 0.00 0.00 59 1031.1
20260905201106 94 353 0.0 0.0 0.00 0.00 0.00 60 1031.1
20260905200602 94 19 0.0 0.0 0.00 0.00 0.00 61 1031.1
20260905200056 94 6 0.9 1.7 0.00 0.00 0.00 62 1031.0
20260905195550 95 7 0.9 1.7 0.00 0.00 0.00 59 1030.8
20260905195046 96 221 0.0 0.9 0.00 0.00 0.00 54 1031.0
20260905194545 96 352 0.0 0.0 0.00 0.00 0.00 50 1031.1
20260905194045 95 57 0.0 0.0 0.00 0.00 0.00 49 1031.0
20260905193540 96 0 0.0 0.0 0.00 0.00 0.00 54 1031.0
20260905193035 96 27 0.0 0.0 0.00 0.00 0.00 51 1031.2
20260905192530 96 139 0.9 0.9 0.00 0.00 0.00 50 1031.5
20260905192027 96 190 1.7 1.7 0.00 0.00 0.00 50 1031.6
20260905191524 96 50 0.0 0.9 0.00 0.00 0.00 50 1031.7
20260905191024 95 33 0.9 0.9 0.00 0.00 0.00 52 1031.8
20260905190522 94 351 0.0 0.0 0.00 0.00 0.00 55 1031.7
20260905190016 94 26 0.0 0.0 0.00 0.00 0.00 57 1031.7
20260905185510 95 338 1.7 1.7 0.00 0.00 0.00 55 1031.6
20260905185009 96 120 0.9 0.9 0.00 0.00 0.00 51 1031.9
20260905184504 96 18 0.0 0.0 0.00 0.00 0.00 52 1032.1
20260905184003 96 6 0.9 0.9 0.00 0.00 0.00 54 1032.1
20260905183503 97 295 0.0 0.0 0.00 0.00 0.00 55 1032.4
20260905182957 96 192 0.9 0.9 0.00 0.00 0.00 51 1032.2
20260905182457 95 61 0.9 0.9 0.00 0.00 0.00 54 1032.4
20260905181952 96 161 0.9 0.9 0.00 0.00 0.00 53 1032.5
20260905181447 96 2 0.0 0.0 0.00 0.00 0.00 53 1032.5
20260905180946 97 193 1.7 2.6 0.00 0.00 0.00 50 1032.5
20260905180441 96 10 0.0 0.0 0.00 0.00 0.00 53 1032.8
20260905175936 96 78 0.9 0.9 0.00 0.00 0.00 51 1032.9
20260905175435 96 29 0.0 0.0 0.00 0.00 0.00 51 1032.7
20260905174931 97 353 0.9 1.7 0.00 0.00 0.00 53 1032.8
20260905174427 96 343 0.9 0.9 0.00 0.00 0.00 53 1033.0
20260905173922 94 358 0.0 0.0 0.00 0.00 0.00 52 1032.9
20260905173418 95 18 0.0 0.9 0.00 0.00 0.00 56 1033.2
20260905172913 94 66 0.9 0.9 0.00 0.00 0.00 57 1033.3
20260905172411 94 14 0.0 0.0 0.00 0.00 0.00 57 1032.9
20260905171907 93 22 0.0 0.0 0.00 0.00 0.00 60 1033.2
20260905171404 93 27 0.0 0.9 0.00 0.00 0.00 58 1033.3
20260905170900 93 11 0.9 0.9 0.00 0.00 0.00 58 1033.3
20260905170355 93 23 0.0 0.9 0.00 0.00 0.00 62 1033.6
20260905165854 93 7 0.9 0.9 0.00 0.00 0.00 58 1033.6
20260905165350 92 8 0.0 0.0 0.00 0.00 0.00 61 1033.5
20260905164844 92 83 0.0 0.9 0.00 0.00 0.00 58 1033.7
20260905164339 93 25 0.0 0.0 0.00 0.00 0.00 59 1033.9
20260905163835 93 352 0.0 0.0 0.00 0.00 0.00 61 1034.0
20260905163331 93 19 0.0 0.0 0.00 0.00 0.00 58 1033.8
20260905162826 93 282 0.0 0.0 0.00 0.00 0.00 60 1034.0
20260905162321 92 23 0.0 0.0 0.00 0.00 0.00 61 1033.8
20260905161815 92 11 0.0 0.0 0.00 0.00 0.00 65 1033.8
20260905161315 92 23 0.0 0.0 0.00 0.00 0.00 62 1034.1
20260905160813 91 0 0.0 0.0 0.00 0.00 0.00 65 1034.0
20260905160308 92 356 0.0 0.9 0.00 0.00 0.00 62 1034.0
20260905155802 92 76 0.9 1.7 0.00 0.00 0.00 62 1034.1
20260905155301 92 292 0.0 0.0 0.00 0.00 0.00 65 1034.0
20260905154754 91 7 0.0 0.0 0.00 0.00 0.00 65 1034.1
20260905154251 91 29 0.0 0.0 0.00 0.00 0.00 65 1033.8
20260905153746 91 356 0.9 0.9 0.00 0.00 0.00 67 1034.0
20260905153242 91 8 0.0 0.0 0.00 0.00 0.00 66 1033.9
20260905152736 91 21 0.0 0.0 0.00 0.00 0.00 66 1034.0
20260905152230 90 203 0.0 0.0 0.00 0.00 0.00 66 1033.9
20260905151725 89 17 0.0 0.0 0.00 0.00 0.00 68 1034.0
20260905151221 89 12 0.0 0.0 0.00 0.00 0.00 70 1034.0
20260905150716 89 14 0.0 0.0 0.00 0.00 0.00 71 1034.1
20260905150215 89 20 0.0 0.0 0.00 0.00 0.00 73 1034.0
20260905145713 89 358 0.0 0.0 0.00 0.00 0.00 72 1034.0
20260905145208 89 23 0.0 0.0 0.00 0.00 0.00 71 1034.0
20260905144706 90 351 0.0 0.0 0.00 0.00 0.00 72 1034.2
20260905144206 91 352 0.0 0.0 0.00 0.00 0.00 70 1033.9
20260905143705 92 345 0.0 0.0 0.00 0.00 0.00 68 1034.2
20260905143200 92 352 0.0 0.0 0.00 0.00 0.00 69 1034.2
20260905142659 92 353 0.0 0.0 0.00 0.00 0.00 70 1034.3
20260905142154 91 352 0.0 0.0 0.00 0.00 0.00 69 1034.4
20260905141649 88 352 0.0 0.0 0.00 0.00 0.00 75 1034.3
20260905141145 86 8 0.0 0.0 0.00 0.00 0.00 77 1034.3
20260905140640 84 9 0.0 0.0 0.00 0.00 0.00 80 1034.5
20260905140138 83 7 0.0 0.0 0.00 0.00 0.00 84 1034.3
20260905135629 82 351 0.0 0.0 0.00 0.00 0.00 85 1034.4
20260905135124 82 2 0.0 0.0 0.00 0.00 0.00 86 1034.3
20260905134618 81 339 0.0 0.0 0.00 0.00 0.00 87 1034.4
20260905134116 81 313 0.0 0.0 0.00 0.00 0.00 87 1034.5
20260905133612 80 304 0.0 0.0 0.00 0.00 0.00 89 1034.3
20260905133107 79 342 0.0 0.0 0.00 0.00 0.00 90 1034.4
20260905132607 79 358 0.0 0.0 0.00 0.00 0.00 90 1034.3
20260905132101 79 64 0.0 0.0 0.00 0.00 0.00 91 1033.9
20260905131557 78 34 0.0 0.0 0.00 0.00 0.00 91 1034.2
20260905131052 78 25 0.0 0.0 0.00 0.00 0.00 92 1034.5
20260905130550 78 317 0.0 0.0 0.00 0.00 0.00 92 1034.5
20260905130046 78 302 0.0 0.0 0.00 0.00 0.00 93 1034.5
20260905125545 77 327 0.0 0.0 0.00 0.00 0.00 94 1034.5
20260905125041 76 11 0.0 0.0 0.00 0.00 0.00 95 1034.6
20260905124537 76 48 0.0 0.0 0.00 0.00 0.00 96 1034.3
20260905124033 76 6 0.0 0.0 0.00 0.00 0.00 97 1034.5
20260905123529 75 5 0.0 0.0 0.00 0.00 0.00 97 1034.6
20260905123026 75 11 0.0 0.0 0.00 0.00 0.00 97 1034.6
20260905122525 75 11 0.0 0.0 0.00 0.00 0.00 97 1034.4
20260905122020 75 11 0.0 0.0 0.00 0.00 0.00 97 1034.6
20260905121515 74 47 0.0 0.0 0.00 0.00 0.00 97 1034.3
20260905121015 74 47 0.0 0.0 0.00 0.00 0.00 97 1034.3
20260905120509 74 34 0.0 0.0 0.00 0.00 0.00 97 1034.4
20260905120005 74 24 0.0 0.0 0.00 0.00 0.00 98 1034.4
20260905115503 74 24 0.0 0.0 0.00 0.00 0.00 98 1034.1
20260905114958 74 22 0.0 0.0 0.00 0.00 0.00 98 1034.1
20260905114458 74 22 0.0 0.0 0.00 0.00 0.00 98 1034.2
20260905113956 74 22 0.0 0.0 0.00 0.00 0.00 98 1034.0
20260905113452 74 22 0.0 0.0 0.00 0.00 0.00 98 1034.2
20260905112947 74 23 0.0 0.0 0.00 0.00 0.00 98 1034.1
20260905112443 74 23 0.0 0.0 0.00 0.00 0.00 98 1034.0
20260905111938 74 23 0.0 0.0 0.00 0.00 0.00 97 1033.8
20260905111432 74 23 0.0 0.0 0.00 0.00 0.00 97 1033.8
20260905110926 74 23 0.0 0.0 0.00 0.00 0.00 97 1033.9
20260905110420 74 20 0.0 0.0 0.00 0.00 0.00 97 1034.0
20260905105914 74 1 0.0 0.0 0.00 0.00 0.00 97 1033.9
20260905105409 74 1 0.0 0.0 0.00 0.00 0.00 97 1034.0
20260905104908 74 1 0.0 0.0 0.00 0.00 0.00 97 1033.8
20260905104405 74 1 0.0 0.0 0.00 0.00 0.00 97 1033.8
20260905103904 74 1 0.0 0.0 0.00 0.00 0.00 97 1033.6
20260905103400 74 1 0.0 0.0 0.00 0.00 0.00 97 1033.7
20260905102856 74 1 0.0 0.0 0.00 0.00 0.00 97 1033.7
20260905102352 74 1 0.0 0.0 0.00 0.00 0.00 97 1033.8
20260905101847 74 1 0.0 0.0 0.00 0.00 0.00 96 1033.7
20260905101345 75 1 0.0 0.0 0.00 0.00 0.00 96 1034.0
20260905100839 75 1 0.0 0.0 0.00 0.00 0.00 96 1033.8
20260905100336 75 1 0.0 0.0 0.00 0.00 0.00 96 1034.2
20260905095834 75 1 0.0 0.0 0.00 0.00 0.00 96 1033.8
20260905095329 75 1 0.0 0.0 0.00 0.00 0.00 96 1033.8
20260905094824 75 0 0.0 0.0 0.00 0.00 0.00 96 1033.6
20260905094320 75 0 0.0 0.0 0.00 0.00 0.00 95 1033.7
20260905093818 75 0 0.0 0.0 0.00 0.00 0.00 95 1033.6
20260905093314 75 0 0.0 0.0 0.00 0.00 0.00 95 1033.6
20260905092809 75 0 0.0 0.0 0.00 0.00 0.00 95 1033.6
20260905092306 75 0 0.0 0.0 0.00 0.00 0.00 95 1033.5
20260905091759 75 0 0.0 0.0 0.00 0.00 0.00 95 1033.8
20260905091259 75 0 0.0 0.0 0.00 0.00 0.00 95 1033.9
20260905090757 75 0 0.0 0.0 0.00 0.00 0.00 94 1033.9
20260905090254 75 0 0.0 0.0 0.00 0.00 0.00 94 1033.7
20260905085753 75 0 0.0 0.0 0.00 0.00 0.00 94 1033.7
20260905085252 75 0 0.0 0.0 0.00 0.00 0.00 94 1033.7
20260905084747 75 0 0.0 0.0 0.00 0.00 0.00 94 1033.6
20260905084242 75 0 0.0 0.0 0.00 0.00 0.00 93 1033.6
20260905083737 75 359 0.0 0.0 0.00 0.00 0.00 93 1033.6
20260905083232 76 359 0.0 0.0 0.00 0.00 0.00 93 1033.6
20260905082728 76 359 0.0 0.0 0.00 0.00 0.00 93 1033.4
20260905082224 75 359 0.0 0.0 0.00 0.00 0.00 93 1033.3
20260905081718 76 359 0.0 0.0 0.00 0.00 0.00 93 1033.5
20260905081213 76 359 0.0 0.0 0.00 0.00 0.00 93 1033.4
20260905080712 76 359 0.0 0.0 0.00 0.00 0.00 93 1033.6
20260905080207 76 359 0.0 0.0 0.00 0.00 0.00 92 1033.4
20260905075706 76 359 0.0 0.0 0.00 0.00 0.00 92 1033.3
20260905075205 76 359 0.0 0.0 0.00 0.00 0.00 92 1033.5
20260905074704 76 359 0.0 0.0 0.00 0.00 0.00 91 1033.4
20260905074201 77 359 0.0 0.0 0.00 0.00 0.00 91 1033.3
20260905073656 77 358 0.0 0.0 0.00 0.00 0.00 91 1033.4
20260905073152 77 359 0.0 0.0 0.00 0.00 0.00 90 1033.4
20260905072651 77 359 0.0 0.0 0.00 0.00 0.00 90 1033.3
20260905072146 77 359 0.0 0.0 0.00 0.00 0.00 90 1033.1
20260905071643 77 359 0.0 0.0 0.00 0.00 0.00 89 1033.1
20260905071138 77 359 0.0 0.0 0.00 0.00 0.00 89 1033.2
20260905070633 77 359 0.0 0.0 0.00 0.00 0.00 89 1033.2
20260905070129 77 359 0.0 0.0 0.00 0.00 0.00 88 1033.3
20260905065627 77 359 0.0 0.0 0.00 0.00 0.00 88 1033.3
20260905065122 77 358 0.0 0.0 0.00 0.00 0.00 88 1033.1
20260905064617 78 358 0.0 0.0 0.00 0.00 0.00 88 1033.2
20260905064113 78 358 0.0 0.0 0.00 0.00 0.00 88 1033.2
20260905063611 78 358 0.0 0.0 0.00 0.00 0.00 88 1033.4
20260905063107 78 358 0.0 0.0 0.00 0.00 0.00 88 1033.3
20260905062602 78 358 0.0 0.0 0.00 0.00 0.00 88 1033.5
20260905062056 78 358 0.0 0.0 0.00 0.00 0.00 87 1033.6
20260905061552 78 358 0.0 0.0 0.00 0.00 0.00 87 1033.3
20260905061051 78 358 0.0 0.0 0.00 0.00 0.00 86 1033.3
20260905060547 78 358 0.0 0.0 0.00 0.00 0.00 86 1033.4
20260905060043 78 358 0.0 0.0 0.00 0.00 0.00 85 1033.7
20260905055541 79 358 0.0 0.0 0.00 0.00 0.00 85 1033.6
20260905055036 79 358 0.0 0.0 0.00 0.00 0.00 85 1033.5
20260905054532 79 358 0.0 0.0 0.00 0.00 0.00 85 1033.6
20260905054027 78 0 0.0 0.0 0.00 0.00 0.00 85 1033.3
20260905053527 79 1 0.0 0.0 0.00 0.00 0.00 85 1033.5
20260905053023 79 1 0.0 0.0 0.00 0.00 0.00 85 1033.2
20260905052521 79 1 0.0 0.0 0.00 0.00 0.00 85 1033.5
20260905052016 79 1 0.0 0.0 0.00 0.00 0.00 85 1033.3
20260905051512 79 2 0.0 0.0 0.00 0.00 0.00 85 1033.4
20260905051003 79 2 0.0 0.0 0.00 0.00 0.00 86 1033.5
20260905050458 79 2 0.0 0.0 0.00 0.00 0.00 86 1033.6
20260905045954 79 2 0.0 0.0 0.00 0.00 0.00 86 1033.6
20260905045449 79 2 0.0 0.0 0.00 0.00 0.00 84 1033.3
20260905044944 79 1 0.0 0.0 0.00 0.00 0.00 84 1033.6
20260905044438 79 2 0.0 0.0 0.00 0.00 0.00 86 1033.7
20260905043933 80 2 0.0 0.0 0.00 0.00 0.00 85 1033.8
20260905043432 80 1 0.0 0.0 0.00 0.00 0.00 85 1033.6
20260905042927 80 20 0.0 0.0 0.00 0.00 0.00 86 1033.7
20260905042422 80 20 0.0 0.0 0.00 0.00 0.00 85 1033.6
20260905041917 80 20 0.0 0.0 0.00 0.00 0.00 84 1033.6
20260905041413 80 20 0.0 0.0 0.00 0.00 0.00 84 1033.5
20260905040912 80 20 0.0 0.0 0.00 0.00 0.00 84 1033.7
20260905040407 80 31 0.0 0.0 0.00 0.00 0.00 83 1033.7
20260905035906 80 31 0.0 0.0 0.00 0.00 0.00 83 1033.7
20260905035402 81 33 0.0 0.0 0.00 0.00 0.00 82 1033.6
20260905034858 82 33 0.0 0.0 0.00 0.00 0.00 81 1033.5
20260905034354 82 30 0.0 0.0 0.00 0.00 0.00 80 1033.5
20260905033852 82 11 0.0 0.0 0.00 0.00 0.00 79 1033.7
20260905033348 82 351 0.0 0.0 0.00 0.00 0.00 79 1033.4
20260905032847 82 1 0.0 0.0 0.00 0.00 0.00 79 1033.4
20260905032342 82 7 0.0 0.0 0.00 0.00 0.00 79 1033.7
20260905031837 82 7 0.0 0.0 0.00 0.00 0.00 78 1033.6
20260905031333 83 7 0.0 0.0 0.00 0.00 0.00 78 1033.5
20260905030828 84 7 0.0 0.0 0.00 0.00 0.00 76 1033.4
20260905030324 84 309 0.0 0.0 0.00 0.00 0.00 76 1033.7
20260905025823 84 5 0.0 0.0 0.00 0.00 0.00 75 1033.8
20260905025318 84 12 0.0 0.0 0.00 0.00 0.00 74 1033.9
20260905024815 85 12 0.0 0.0 0.00 0.00 0.00 73 1034.0
20260905024310 85 358 0.0 0.0 0.00 0.00 0.00 72 1034.0
20260905023805 85 5 0.0 0.0 0.00 0.00 0.00 72 1034.1
20260905023300 85 352 0.0 0.0 0.00 0.00 0.00 72 1034.3
20260905022759 85 47 0.0 0.0 0.00 0.00 0.00 72 1034.3
20260905022255 85 342 0.0 0.0 0.00 0.00 0.00 71 1033.9
20260905021755 85 349 0.0 0.0 0.00 0.00 0.00 71 1034.1
20260905021250 85 349 0.0 0.0 0.00 0.00 0.00 71 1034.1